Flag for Indonesia Weather past 2 weeks in Manado, North Sulawesi, Indonesia

Now
82 °F

Scattered clouds.


Feels Like: 89 °F
Forecast: 75 / 89 °F
Wind: 2 mph from North

Location: Menado / Dr. Sam Ratulangi

Current Time: Mar 30, 2015 at 10:26:12 AM

Latest Report: Mar 30, 2015 at 9:30 AM


Visibility: 6 mi

Pressure: 29.89 "Hg

Humidity: 79%

Dew point: 75 °F

Location of ManadoLocation

Historic Weather in Manado — Graph

°F

Manado temperature yesterday

Maximum temperature yesterday: 88 °F (at 11:30 AM)
Minimum temperature yesterday: 75 °F (at 5:00 AM)
Average temperature yesterday: 82 °F

Past Weeks' High & Low Weather Summary

 TemperatureHumidityPressure
High90 °F (Mar 25, 2:30 PM)100% (Mar 16, 2:00 AM)29.98 "Hg (Mar 16, 2:00 AM)
Low70 °F (Mar 24, 5:30 AM)49% (Mar 26, 1:30 PM)29.80 "Hg (Mar 17, 3:30 PM)
Average81 °F80%29.89 "Hg
* Reported Mar 15 9:00 AM — Mar 30 9:00 AM, Manado, Weather by CustomWeather, © 2015

Note: Actual official high and low records may vary slightly from our data, if they occured in-between our weather recording intervals... More about our weather records

Advertising

Manado weather history for previous 24 hours

 ConditionsComfort  
Time TempWeatherWind HumidityBarometerVisibility
9:00 AM
Mon, Mar 30
82 °FScattered clouds.1 mph84%29.92 "Hg6 mi
8:30 AM81 °FPassing clouds.2 mph84%29.92 "Hg6 mi
8:00 AM82 °FPassing clouds.2 mph79%29.89 "Hg6 mi
7:00 AM77 °FPassing clouds.1 mph94%29.89 "Hg6 mi
6:30 AM75 °FPassing clouds.1 mph94%29.86 "Hg6 mi
6:00 AM75 °FPassing clouds.3 mph94%29.86 "Hg6 mi
5:30 AM75 °FPassing clouds.1 mph94%29.83 "Hg6 mi
5:00 AM75 °FPassing clouds.1 mph94%29.83 "Hg6 mi
4:30 AM75 °FPassing clouds.2 mph94%29.83 "Hg6 mi
4:00 AM75 °FPassing clouds.1 mph94%29.83 "Hg6 mi
3:00 AM77 °FPassing clouds.2 mph94%29.83 "Hg6 mi
2:00 AM77 °FPassing clouds.2 mph94%29.83 "Hg6 mi
12:00 AM79 °FPassing clouds.3 mph89%29.86 "Hg6 mi
11:30 PM
Sun, Mar 29
77 °FPassing clouds.2 mph94%29.86 "Hg6 mi
11:00 PM77 °FPassing clouds.2 mph94%29.89 "Hg6 mi
10:30 PM77 °FPassing clouds.No wind94%29.89 "Hg6 mi
10:00 PM79 °FPassing clouds.2 mph89%29.89 "Hg6 mi
9:30 PM79 °FPassing clouds.3 mph89%29.86 "Hg6 mi
9:00 PM79 °FPassing clouds.5 mph89%29.89 "Hg6 mi
8:30 PM79 °FPassing clouds.3 mph89%29.86 "Hg6 mi
8:00 PM79 °FPassing clouds.3 mph94%29.86 "Hg6 mi
7:30 PM79 °FLight rain. Passing clouds.5 mph94%29.86 "Hg5 mi
7:00 PM81 °FLight rain. Passing clouds.5 mph89%29.86 "Hg5 mi
6:30 PM81 °FPassing clouds.5 mph84%29.83 "Hg6 mi
6:00 PM81 °FPassing clouds.3 mph84%29.83 "Hg6 mi
5:30 PM81 °FScattered clouds.7 mph84%29.83 "Hg6 mi
5:00 PM82 °FLight rain. Scattered clouds.6 mph84%29.83 "Hg5 mi
4:30 PM82 °FLight rain. Scattered clouds.9 mph79%29.80 "Hg5 mi
4:00 PM84 °FScattered clouds.9 mph79%29.80 "Hg5 mi
3:30 PM84 °FScattered clouds.10 mph70%29.80 "Hg6 mi
3:00 PM86 °FScattered clouds.10 mph70%29.80 "Hg6 mi
2:30 PM88 °FScattered clouds.9 mph66%29.80 "Hg6 mi
2:00 PM84 °FScattered clouds.13 mph70%29.80 "HgN/A
1:30 PM88 °FScattered clouds.10 mph62%29.83 "HgN/A
1:00 PM88 °FScattered clouds.12 mph66%29.83 "HgN/A
12:30 PM88 °FScattered clouds.13 mph70%29.86 "Hg6 mi
12:00 PM86 °FScattered clouds.13 mph66%29.86 "Hg6 mi
11:30 AM88 °FScattered clouds.10 mph70%29.89 "Hg6 mi
11:00 AM86 °FScattered clouds.9 mph75%29.89 "Hg6 mi
10:30 AM86 °FScattered clouds.14 mph70%29.89 "HgN/A
10:00 AM86 °FScattered clouds.10 mph75%29.89 "HgN/A
Weather by CustomWeather, © 2015

See weather overviewHow to use our weather pages